This demonstration page uses our WeatherBlox Daily Observations layout. Learn more.

Left ArrowRight Arrow

Hourly Observations for May 18, 2015

Temp ( °F °C ) Dew Point ( °F °C ) Humidity (%) Winds ( mph kmh ) Pressure ( in mb ) Visibility ( mi km ) Precip ( " mm )
12:53 am 00:53 Clear 75 23.9 68 20 79 79 SSW 6 9 30.09 1019 10 16 0.00 0.00
1:53 am 01:53 Clear 74 23.3 66 18.9 76 76 SW 6 9 30.10 1019 10 16 0.00 0.00
2:53 am 02:53 Partly Cloudy with Light Rain 73 22.8 65 18.3 76 76 SSW 5 7 30.09 1019 10 16 0.00 0.03
3:53 am 03:53 Clear 73 22.8 65 18.3 76 76 SW 6 9 30.09 1019 10 16 0.00 0.03
4:53 am 04:53 Clear 71 21.7 65 18.3 81 81 SSW 6 9 30.08 1019 10 16 0.00 0.00
5:53 am 05:53 Clear 70 21.1 65 18.3 84 84 SW 5 7 30.09 1019 10 16 0.00 0.00
6:53 am 06:53 Partly Cloudy 70 21.1 66 18.9 87 87 VRB 5 7 30.10 1019 10 16 0.00 0.00
7:53 am 07:53 Partly Cloudy 72 22.2 67 19.4 84 84 WSW 6 9 30.11 1020 10 16 0.00 0.00
8:40 am 08:40 Cloudy 72 22.2 67 19.4 84 84 W 6 9 30.09 1019 10 16 0.00 0.00
8:53 am 08:53 Cloudy 72 22.2 67 19.4 84 84 VRB 3 6 30.11 1020 10 16 0.00 0.00
9:53 am 09:53 Cloudy 73 22.8 67 19.4 81 81 SSW 6 9 30.12 1020 10 16 0.00 0.00
10:19 am 10:19 Mostly Cloudy 74 23.3 67 19.4 79 79 SW 9 15 30.12 1020 10 16 0.00 0.00
10:53 am 10:53 Mostly Cloudy 75 23.9 67 19.4 76 76 WSW 5 7 30.13 1020 10 16 0.00 0.00
11:08 am 11:08 Cloudy 75 23.9 67 19.4 76 76 SW 5 7 30.12 1020 10 16 0.00 0.00
11:16 am 11:16 Cloudy 75 23.9 67 19.4 76 76 VRB 5 7 30.12 1020 10 16 0.00 0.00
11:53 am 11:53 Cloudy 77 25 67 19.4 71 71 WSW 7 11 30.13 1020 10 16 0.00 0.00
12:10 pm 12:10 Mostly Cloudy 77 25 67 19.4 71 71 SW 9 15 30.12 1020 10 16 0.00 0.00
12:24 pm 12:24 Mostly Cloudy with Light Rain 75 23.9 67 19.4 76 76 VRB 7 11 30.12 1020 9 14 0.00 0.03
12:28 pm 12:28 Mostly Cloudy with Rain 74 23.3 67 19.4 79 79 W 9 15 30.12 1020 1 2 0.07 1.78
12:37 pm 12:37 Cloudy with Heavy Rain 71 21.7 69 20.6 94 94 VRB 3 6 30.12 1020 1 1 0.19 4.83
12:44 pm 12:44 Cloudy with Light Rain 72 22.2 69 20.6 91 91 VRB 6 9 30.12 1020 2 3 0.19 4.83
12:51 pm 12:51 Cloudy with Light Rain 72 22 70 21 94 94 SW 6 9 30.12 1020 6 10 0.20 5.08
12:53 pm 12:53 Cloudy with Light Rain 72 22.2 70 21.1 94 94 WSW 5 7 30.13 1020 6 10 0.20 5.08
1:04 pm 13:04 Cloudy 73 22.8 70 21.1 90 90 VRB 3 6 30.12 1020 9 14 0.00 0.03
1:13 pm 13:13 Cloudy 75 23.9 70 21.1 84 84 SW 5 7 30.12 1020 9 14 0.00 0.03
1:28 pm 13:28 Mostly Cloudy 76 24.4 70 21.1 82 82 VRB 7 11 30.09 1019 10 16 0.00 0.03
1:53 pm 13:53 Mostly Cloudy 76 24.4 68 20 77 77 SW 8 13 30.11 1020 10 16 0.00 0.03
2:01 pm 14:01 Mostly Cloudy 76 24.4 68 20 77 77 VRB 7 11 30.09 1019 10 16 0.00 0.00
2:15 pm 14:15 Cloudy 77 25 69 20.6 77 77 WSW 8 13 30.09 1019 10 16 0.00 0.00
2:26 pm 14:26 Cloudy with Light Rain 76 24.4 69 20.6 79 79 VRB 7 11 30.09 1019 10 16 0.00 0.03
2:51 pm 14:51 Cloudy with Rain 73 23 68 20 83 83 W 12 19 30.09 1019 2 3 0.06 1.52
2:53 pm 14:53 Cloudy with Heavy Rain 73 22.8 69 20.6 87 87 W 9 15 30.12 1020 1 2 0.11 2.79
3:00 pm 15:00 Mostly Cloudy with Heavy Rain 71 21.7 69 20.6 94 94 SW 6 9 30.09 1019 1 1 0.15 3.81
3:08 pm 15:08 Cloudy with Nearby Thunderstorms 72 22.2 70 21.1 94 94 VRB 3 6 30.09 1019 1 2 0.19 4.83
3:12 pm 15:12 Cloudy with Nearby Thunderstorms 72 22.2 71 21.7 97 97 Calm 30.09 1019 3 4 0.19 4.83
3:19 pm 15:19 Mostly Cloudy with Nearby Thunderstorms 72 22.2 70 21.1 94 94 VRB 3 6 30.09 1019 7 11 0.19 4.83
3:23 pm 15:23 Mostly Cloudy 73 22.8 70 21.1 90 90 Calm 30.09 1019 8 13 0.19 4.83
3:53 pm 15:53 Mostly Cloudy 75 23.9 71 21.7 88 88 Calm 30.09 1019 9 14 0.19 4.83
4:53 pm 16:53 Partly Cloudy with Light Rain 75 23.9 70 21.1 84 84 VRB 6 9 30.08 1019 8 13 0.00 0.03
5:53 pm 17:53 Partly Cloudy with Light Rain 75 23.9 69 20.6 82 82 VRB 7 11 30.07 1018 10 16 0.00 0.03
6:53 pm 18:53 Partly Cloudy 75 23.9 69 20.6 82 82 SW 7 11 30.06 1018 10 16 0.00 0.03
7:33 pm 19:33 Mostly Cloudy 75 23.9 68 20 79 79 SW 5 7 30.06 1018 10 16 0.00 0.00
7:45 pm 19:45 Partly Cloudy 74 23.3 68 20 82 82 SW 5 7 30.06 1018 10 16 0.00 0.00
7:53 pm 19:53 Mostly Cloudy 74 23.3 68 20 82 82 VRB 5 7 30.05 1018 10 16 0.00 0.00
8:05 pm 20:05 Partly Cloudy 74 23.3 68 20 82 82 VRB 5 7 30.06 1018 10 16 0.00 0.00
8:53 pm 20:53 Clear 71 21.7 67 19.4 87 87 Calm 30.05 1018 10 16 0.00 0.00
9:53 pm 21:53 Clear 68 20 66 18.9 93 93 WSW 3 6 30.07 1018 10 16 0.00 0.03
10:53 pm 22:53 Clear with Mist and Fog 65 18.3 64 17.8 97 97 Calm 30.09 1019 5 8 0.00 0.00
11:40 pm 23:40 Clear with Mist and Fog 65 18.3 64 17.8 97 97 Calm 30.06 1018 2 3 0.00 0.00
11:53 pm 23:53 Clear with Mist and Fog 64 17.8 63 17.2 96 96 Calm 30.08 1019 3 5 0.00 0.00

Powered by AerisWeather